Location: Unspecified
(0.0000°N, 0.0000°E)
Time: 02:03:16
(UTC+02:00)

H-2A R/B - Visible Passes

Search period start: 29 May 2017 00:00
Search period end: 08 June 2017 00:00
Orbit: 246 x 33112 km, 28.3° (Epoch: 26 May)

Date Brightness Start Highest point End Pass type
(mag) Time Alt. Az. Time Alt. Az. Time Alt. Az.
29 May 5.1 13:52:21 10° WSW 15:32:27 37° WSW 22:33:25 10° NNE visible
31 May 8.5 14:24:02 10° WSW 15:53:39 30° WSW 19:14:06 10° W visible
31 May 4.9 22:43:19 10° NW 22:53:58 17° NNW 22:56:44 14° NNE visible
02 Jun 5.8 04:20:50 11° SE 04:20:50 11° SE 04:21:28 10° SE visible
02 Jun 5.0 23:13:17 10° NW 23:19:37 15° N 23:19:48 15° N visible
04 Jun 5.5 04:43:55 15° SSE 04:43:55 15° SSE 04:49:52 10° SE visible
04 Jun 8.9 08:50:08 10° E 11:44:10 26° ENE 13:07:45 10° ENE visible
04 Jun 5.1 23:40:22 10° NW 23:42:38 13° NNW 23:42:38 13° NNW visible
06 Jun 5.4 05:06:45 18° SSE 05:06:45 18° SSE 13:39:56 10° ENE visible
